Location: Goll?ig?dem
(16.6773°N, 80.7332°E)
Time: 20:22:58
(UTC+00:00)

CZ-4 R/B - Pass Details

Date: 19 May 2025
Orbit: 499 x 550 km, 97.6° (Epoch: 21 June)

Event Time Altitude Azimuth Distance (km) Brightness Sun altitude
Exits shadow 15:36:11 12° 264° (W) 1,669 4.2 -33.1°
Drops below altitude 10° 15:37:47 10° 288° (WNW) 1,822 4.7 -33.4°
Sets 15:41:05 0° 318° (NW) 2,716 5.9 -34.0°
